Weather History for Cincinnati, OH

Change the Weather History Date:

Friday, November 23, 2012

  Actual Average Record
Temperature  
Mean Temperature 46 °F -  
Max Temperature 57 °F 52 °F 73 °F (1999)
Min Temperature 34 °F 33 °F 16 °F (1970)
Degree Days  
Heating Degree Days 20    
Moisture  
Dew Point 32 °F    
Average Humidity 56    
Maximum Humidity 80    
Minimum Humidity 44    
Precipitation  
Precipitation 0.00 in - - ()
Sea Level Pressure  
Sea Level Pressure 30.07 in    
Wind  
Wind Speed 12 mph (West)    
Max Wind Speed 22 mph    
Max Gust Speed 30 mph    
Visibility 10 miles    
Events Rain    
Averages and records for this station are not official NWS values.
T = Trace of Precipitation, MM = Missing Value Source: NWS Daily Summary

Daily Weather History Graph

Daily Weather History Graph

Search for Another Location

Airport:

Trip Planner

Search our weather history database for the weather conditions in past years. The results will help you decide how hot, cold, wet, or windy it might be!

Date:

Astronomy

Nov. 23, 2012 Rise Set
Actual Time 7:30 AM EST 5:18 PM EST
Civil Twilight 7:00 AM EST 5:47 PM EST
Nautical Twilight 6:28 AM EST 6:19 PM EST
Astronomical Twilight 5:56 AM EST 6:51 PM EST
Moon 2:30 PM EST (11/23) 2:50 AM EST (11/23)
Length of Visible Light 10h 46m
Length of Day
9h 47m
Waxing Gibbous, 79% of the Moon is Illuminated
Nov 23
Waxing Gibbous
Nov 28
Full
Dec 6
Last Quarter
Dec 13
New
Dec 20
First Quarter

Hourly Weather History & Observations

Time (EST) Temp. Windchill Dew Point Humidity Pressure Visibility Wind Dir Wind Speed Gust Speed Precip Events Conditions
12:53 AM 48.0 °F - 42.1 °F 80% 30.02 in 10.0 mi SW 6.9 mph - N/A   Clear
1:53 AM 54.0 °F - 42.1 °F 64% 30.00 in 10.0 mi SSW 10.4 mph - N/A   Mostly Cloudy
2:53 AM 57.9 °F - 39.9 °F 51% 29.98 in 10.0 mi SSW 16.1 mph - N/A   Overcast
3:53 AM 57.9 °F - 39.9 °F 51% 29.97 in 10.0 mi SW 11.5 mph 20.7 mph N/A   Overcast
4:53 AM 57.0 °F - 41.0 °F 55% 29.96 in 10.0 mi SSW 12.7 mph - N/A   Overcast
5:53 AM 55.9 °F - 43.0 °F 62% 29.96 in 10.0 mi SW 11.5 mph - 0.00 in Rain Light Rain
6:01 AM 55.4 °F - 42.8 °F 63% 29.96 in 10.0 mi SW 8.1 mph - 0.00 in Rain Light Rain
6:53 AM 55.9 °F - 46.0 °F 69% 29.98 in 10.0 mi SW 10.4 mph - 0.00 in   Overcast
7:53 AM 53.1 °F - 44.1 °F 71% 29.99 in 10.0 mi West 10.4 mph 19.6 mph 0.00 in   Overcast
8:53 AM 48.9 °F - 35.1 °F 59% 30.02 in 10.0 mi West 15.0 mph - N/A   Overcast
9:53 AM 46.0 °F 39.0 °F 34.0 °F 63% 30.05 in 10.0 mi West 17.3 mph 23.0 mph N/A   Mostly Cloudy
10:53 AM 48.9 °F - 30.9 °F 50% 30.06 in 10.0 mi West 17.3 mph 25.3 mph N/A   Clear
11:53 AM 48.9 °F - 28.9 °F 46% 30.05 in 10.0 mi WNW 20.7 mph 29.9 mph N/A   Clear
12:53 PM 46.9 °F - 28.0 °F 48% 30.04 in 10.0 mi West 21.9 mph 27.6 mph N/A   Partly Cloudy
1:53 PM 48.0 °F - 28.0 °F 46% 30.03 in 10.0 mi West 16.1 mph 28.8 mph N/A   Partly Cloudy
2:53 PM 46.9 °F - 26.1 °F 44% 30.05 in 10.0 mi West 18.4 mph 29.9 mph N/A   Clear
3:53 PM 45.0 °F 37.6 °F 25.0 °F 46% 30.07 in 10.0 mi WNW 17.3 mph 28.8 mph N/A   Partly Cloudy
4:53 PM 42.1 °F 35.2 °F 25.0 °F 51% 30.11 in 10.0 mi WNW 12.7 mph 21.9 mph N/A   Partly Cloudy
5:53 PM 39.9 °F 33.4 °F 24.1 °F 53% 30.15 in 10.0 mi WNW 10.4 mph 17.3 mph N/A   Mostly Cloudy
6:53 PM 39.0 °F 32.3 °F 23.0 °F 53% 30.17 in 10.0 mi NNW 10.4 mph 21.9 mph N/A   Overcast
7:53 PM 37.0 °F 29.3 °F 23.0 °F 57% 30.20 in 10.0 mi NNW 11.5 mph 20.7 mph N/A   Overcast
8:53 PM 36.0 °F 28.0 °F 21.0 °F 55% 30.21 in 10.0 mi NNW 11.5 mph 17.3 mph N/A   Overcast
9:53 PM 35.1 °F 30.1 °F 21.0 °F 57% 30.22 in 10.0 mi Variable 5.8 mph - N/A   Overcast
10:53 PM 34.0 °F 27.2 °F 21.0 °F 59% 30.22 in 10.0 mi NNW 8.1 mph - N/A   Overcast
11:53 PM 34.0 °F 27.2 °F 19.9 °F 56% 30.22 in 10.0 mi NW 8.1 mph - N/A   Overcast